Regional Weather Roundup
Issued by NWS

Home | Current Version | Previous Version | Text Only | Print | Product List | Glossary Off
Versions: 1 2 3 4 5 6 7 8 9 10 11 12 13 14 15 16 17 18 19 20 21 22 23 24 25 26 27 28 29 30 31 32 33 34 35 36 37 38 39 40 41 42 43 44 45 46 47 48 49 50

000
ASUS45 KBOU 242210
RWRCO

WEATHER ROUNDUP FOR COLORADO
NATIONAL WEATHER SERVICE PUEBLO CO
400 PM MDT TUE APR 24 2018

NOTE: "FAIR" INDICATES FEW OR NO CLOUDS BELOW 12000 FEET WITH NO
SIGNIFICANT WEATHER AND/OR OBSTRUCTIONS TO VISIBILITY.

COZ001>005-013-030-031-242300-
...NORTHWEST COLORADO...

CITY           SKY/WX    TMP DP  RH WIND       PRES   REMARKS
CRAIG          SUNNY     54  23  30 NW17      30.28F
HAYDEN         MOSUNNY   50  18  28 W20G26    30.26F
MEEKER         MOSUNNY   54  22  28 N13G23    30.27F
RABBIT EARS PA NOT AVBL
STEAMBOAT SPGS PTSUNNY   47  24  40 NW14G23   30.26S
WALDEN         FAIR      43  16  33 N15       30.31F
$$

COZ006>008-011-242300-
...WEST CENTRAL VALLEYS...

CITY           SKY/WX    TMP DP  RH WIND       PRES   REMARKS
GRAND JUNCTION MOSUNNY   68  23  18 NW18G28   30.15S
MONTROSE       PTSUNNY   66  28  24 NW22G28   30.14F
EAGLE          LGT RAIN  56  23  27 NW14G23   30.21R
RIFLE          PTSUNNY   61  21  21 NW16      30.20F
DELTA          NOT AVBL
NUCLA          MOCLDY    68  25  19 N14G26    30.15F
$$

COZ017>023-064>068-242300-
...SOUTHWEST COLORADO...

CITY           SKY/WX    TMP DP  RH WIND       PRES   REMARKS
DURANGO        MOSUNNY   71  21  15 W17G28    30.09F
CORTEZ         MOSUNNY   74  19  12 NW13G25   30.09F
PAGOSA SPRINGS PTSUNNY   66  15  14 W16       30.14S
TELLURIDE      CLOUDY    54  23  29 W8G21     30.28F
WOLF CREEK PAS CLOUDY    41  19  42 SW23G35   30.37F
$$

COZ009-010-012-014-032>034-037-058>063-242300-
...CENTRAL COLORADO...

CITY           SKY/WX    TMP DP  RH WIND       PRES   REMARKS
ASPEN          CLOUDY    50  28  42 NW16G24   30.20R
BUENA VISTA    LGT RAIN  47  33  59 E9        30.21S
COPPER MTN     NOT AVBL
BERTHOUD PASS  CLOUDY    19  10  68 NW20G26   30.32F WCI   4
COTTONWOOD PAS FLURRIES  41  36  81 CALM      30.27R
GUNNISON       PTSUNNY   57  28  33 W23       30.16F
KREMMLING      MOSUNNY   54  28  37 NW10G21   30.25F
LEADVILLE      PTSUNNY   42  29  59 SW16      30.23F
MONARCH PASS   CLOUDY    36  23  60 W33G47    30.42F
SALIDA         CLOUDY    39  33  78 SE23G35   30.30R
SUNLIGHT       CLOUDY    32  19  59 W5G16     30.36S WCI  27
WILKERSON PASS LGT SNOW  21  19  93 CALM      30.33F VSB 3/4
$$

COZ069>075-242300-
...SAN LUIS VALLEY/SANGRE DE CRISTO MOUNTAINS...

CITY           SKY/WX    TMP DP  RH WIND       PRES   REMARKS
ALAMOSA        PTSUNNY   64  25  22 NE15G22   30.11F
DEL NORTE      CLOUDY    63  27  25 NW13      30.14F
LA VETA PASS   SNOW      27  23  86 MISG      30.42R VSB 1/4
SAGUACHE       NOT AVBL
$$

COZ035-036-038>040-242300-
...NORTHERN COLORADO FRONT RANGE...

CITY           SKY/WX    TMP DP  RH WIND       PRES   REMARKS
DENVER INTL AP CLOUDY    39  32  76 N7        30.38F
DMNS CITY PARK NOT AVBL
AURORA         NOT AVBL
FRONT RANGE AP CLOUDY    39  34  81 N10       30.39F
ERIE MUNI ARPT LGT RAIN  37  35  93 W6        30.46S
BOULDER MUN AP LGT SNOW  34  34 100 W6        30.40F WCI  29
CENTENNIAL     LGT SNOW  34  32  92 NE10      30.38F VSB 1   WCI  26
BROOMFIELD     LGT SNOW  36  36 100 NW6       30.41S VSB 3/4
LOVELAND       CLOUDY    43  25  49 NE6       30.39F
LONGMONT       CLOUDY    39  36  89 SW9       30.42S
$$

COZ041-046-047-076>085-087-088-242300-
...PIKES PEAK/PALMER DIVIDE AND SOUTHERN FOOTHILLS...

CITY           SKY/WX    TMP DP  RH WIND       PRES   REMARKS
COLO. SPRINGS  FLURRIES  39  27  62 N17G26    30.35F
A. F. ACADEMY  NOT AVBL
SCHRIEVER AFB  NOT AVBL
CHEYENNE MTN   NOT AVBL
ELLICOTT         N/A    N/A N/A N/A N20G29    30.32F
FALCON         CLOUDY    34  28  76 N18G24    30.34F WCI  23
FORT CARSON    LGT RAIN  39  29  66 N20G26    30.34S
LIMON          CLOUDY    36  32  85 N22       30.36S
MONUMENT HILL  CLOUDY    30  28  93 N12       30.38S WCI  21
CANON CITY     LGT RAIN  37  36  93 SE12      30.35S
WALSENBURG     CLOUDY    37  36  93 MISG      30.37R
TRINIDAD       CLOUDY    37  35  92 NE9       30.36S
$$

COZ042>045-048>051-090-091-242300-
...NORTHEAST COLORADO...

CITY           SKY/WX    TMP DP  RH WIND       PRES   REMARKS
GREELEY ARPT   CLOUDY    45  25  45 NE15      30.39F
AKRON          CLOUDY    41  31  67 N21       30.37S
BURLINGTON     CLOUDY    43  35  73 N23G32    30.33S
WRAY           CLOUDY    41  32  70 N22G28    30.38R
YUMA           NOT AVBL
STERLING       NOT AVBL
HOLYOKE        PTSUNNY   43  34  70 N21G31    30.38S
FORT MORGAN    MOCLDY    45  26  46 N18       30.39F
$$

COZ086-089-092>099-242300-
...SOUTHEAST COLORADO...

CITY           SKY/WX    TMP DP  RH WIND       PRES   REMARKS
PUEBLO         LGT RAIN  40  35  83 NE14      30.38R
LA JUNTA       CLOUDY    47  31  53 N16       30.36S
LAMAR          CLOUDY    48  32  53 N14       30.32F
SPRINGFIELD      N/A     42  33  70 N18G28    30.31S
$$





USA.gov is the U.S. government's official web portal to all federal, state and local government web resources and services.